Biloxi, MS

8:46 PM CDT on March 30, 2017 (GMT -0500)
Keesler Air Force Base

Weather History for KBIX - September, 2011

Change the Weather History Date:

Wednesday, September 28, 2011

  Actual Average Record
Temperature  
Mean Temperature 78 °F -  
Max Temperature 90 °F 85 °F 96 °F (1953)
Min Temperature 68 °F 66 °F 52 °F (1975)
Cooling Degree Days 14    
Growing Degree Days 28 (Base 50)    
Moisture  
Dew Point 72 °F    
Average Humidity 82    
Maximum Humidity 95    
Minimum Humidity 55    
Precipitation  
Precipitation 0.73 in - - ()
Sea Level Pressure  
Sea Level Pressure 29.92 in    
Wind  
Wind Speed 10 mph (WSW)    
Max Wind Speed 20 mph    
Max Gust Speed 26 mph    
Visibility 9 miles    
Events Fog , Rain , Thunderstorm    
Averages and records for this station are not official NWS values.
T = Trace of Precipitation, MM = Missing Value Source: NWS Daily Summary

Daily Weather History Graph

Daily Weather History Graph

Search for Another Location

Airport or City:

Trip Planner

Search our weather history database for the weather conditions in past years. The results will help you decide how hot, cold, wet, or windy it might be!

Date:

Astronomy

Sep. 28, 2011 Rise Set
Actual Time 6:47 AM CDT 6:45 PM CDT
Civil Twilight 6:23 AM CDT 7:08 PM CDT
Nautical Twilight 5:55 AM CDT 7:36 PM CDT
Astronomical Twilight 5:27 AM CDT 8:04 PM CDT
Moon 8:05 AM CDT (9/28) 7:27 PM CDT (9/28)
Length of Visible Light 12h 45m
Length of Day
11h 57m
New Moon, 2% of the Moon is Illuminated
Sep 28
New Moon
Oct 3
First Quarter
Oct 11
Full
Oct 19
Last Quarter
Oct 26
New

Hourly Weather History & Observations

Time (CDT) Temp. Heat Index Dew Point Humidity Pressure Visibility Wind Dir Wind Speed Gust Speed Precip Events Conditions
12:12 AM 82.4 °F 90.9 °F 77.0 °F 84% 29.91 in 10.0 mi SSW 11.5 mph - N/A   Mostly Cloudy
12:14 AM 82.4 °F 90.9 °F 77.0 °F 84% 29.91 in 10.0 mi SSW 10.4 mph - N/A   Mostly Cloudy
12:15 AM 82.4 °F 90.9 °F 77.0 °F 84% 29.91 in 10.0 mi SSW 11.5 mph - N/A   Mostly Cloudy
12:48 AM 82.4 °F 90.9 °F 77.0 °F 84% 29.90 in 10.0 mi SW 13.8 mph - N/A   Mostly Cloudy
12:55 AM 81.7 °F 89.7 °F 77.5 °F 87% 29.90 in 10.0 mi SW 13.8 mph - N/A   Scattered Clouds
1:45 AM 80.6 °F 88.1 °F 78.8 °F 94% 29.90 in 10.0 mi WSW 9.2 mph - N/A   Mostly Cloudy
1:48 AM 80.6 °F 88.1 °F 78.8 °F 94% 29.90 in 10.0 mi West 4.6 mph - N/A   Mostly Cloudy
1:55 AM 81.3 °F 89.4 °F 78.3 °F 90% 29.90 in 10.0 mi WSW 8.1 mph - N/A   Mostly Cloudy
1:57 AM 80.6 °F 87.1 °F 77.0 °F 89% 29.90 in 10.0 mi WSW 6.9 mph - N/A   Mostly Cloudy
2:01 AM 80.6 °F 87.1 °F 77.0 °F 89% 29.90 in 10.0 mi West 8.1 mph - N/A   Scattered Clouds
2:55 AM 80.1 °F 85.4 °F 75.9 °F 87% 29.91 in 10.0 mi West 3.5 mph - N/A   Partly Cloudy
3:55 AM 78.8 °F - 76.3 °F 92% 29.89 in 10.0 mi WSW 6.9 mph - N/A   Clear
4:55 AM 79.7 °F - 77.2 °F 92% 29.89 in 10.0 mi WSW 6.9 mph - N/A   Partly Cloudy
5:55 AM 79.7 °F - 77.0 °F 91% 29.90 in 10.0 mi WSW 5.8 mph - N/A   Clear
6:55 AM 79.0 °F - 76.8 °F 93% 29.91 in 10.0 mi West 6.9 mph - N/A   Clear
7:55 AM 79.7 °F - 77.2 °F 92% 29.93 in 10.0 mi Variable 4.6 mph - N/A   Clear
8:55 AM 82.6 °F 91.7 °F 77.7 °F 85% 29.93 in 10.0 mi West 4.6 mph - N/A   Partly Cloudy
9:19 AM 84.2 °F 94.1 °F 77.0 °F 79% 29.94 in 10.0 mi West 5.8 mph - N/A   Mostly Cloudy
9:20 AM 84.2 °F 94.1 °F 77.0 °F 79% 29.94 in 10.0 mi West 4.6 mph - N/A   Scattered Clouds
9:55 AM 84.7 °F 94.4 °F 76.5 °F 76% 29.93 in 10.0 mi Variable 3.5 mph - N/A   Partly Cloudy
10:55 AM 86.5 °F 95.0 °F 74.5 °F 67% 29.92 in 10.0 mi Variable 4.6 mph - N/A   Clear
11:55 AM 89.4 °F 97.3 °F 73.0 °F 58% 29.91 in 10.0 mi Variable 5.8 mph - N/A   Clear
12:55 PM 88.7 °F 98.7 °F 75.2 °F 64% 29.90 in 10.0 mi SSW 10.4 mph - N/A   Partly Cloudy
1:55 PM 88.9 °F 99.2 °F 75.4 °F 64% 29.88 in 10.0 mi SSW 11.5 mph - N/A   Partly Cloudy
2:41 PM 89.6 °F 96.2 °F 71.6 °F 55% 29.87 in 10.0 mi South 10.4 mph - N/A Thunderstorm Thunderstorm
2:55 PM 85.8 °F 90.1 °F 69.4 °F 58% 29.90 in 10.0 mi ENE 18.4 mph 23.0 mph N/A Thunderstorm Thunderstorm
2:56 PM 84.2 °F 87.3 °F 68.0 °F 58% 29.90 in 10.0 mi ENE 17.3 mph 23.0 mph N/A Thunderstorm Scattered Clouds
3:07 PM 77.0 °F - 66.2 °F 69% 29.91 in 10.0 mi NE 19.6 mph - N/A Thunderstorm Mostly Cloudy
3:11 PM 77.0 °F - 66.2 °F 69% 29.94 in 10.0 mi NNE 15.0 mph - N/A Thunderstorm Thunderstorm
3:27 PM 75.2 °F - 66.2 °F 73% 29.97 in 2.0 mi NNW 17.3 mph 25.3 mph N/A Rain , Thunderstorm Thunderstorms and Rain
3:31 PM 73.4 °F - 66.2 °F 78% 29.96 in 1.2 mi North 11.5 mph 19.6 mph N/A Rain , Thunderstorm Light Thunderstorms and Rain
3:32 PM 73.4 °F - 66.2 °F 78% 29.96 in 0.8 mi North 10.4 mph 20.7 mph N/A Rain , Thunderstorm Heavy Thunderstorms and Rain
3:41 PM 69.8 °F - 68.0 °F 94% 29.94 in 3.0 mi North 9.2 mph 20.7 mph N/A Fog , Rain , Thunderstorm Heavy Thunderstorms and Rain
3:55 PM 68.0 °F - 64.4 °F 88% 29.93 in 5.0 mi NW 4.6 mph 20.7 mph 0.58 in Rain , Thunderstorm Light Thunderstorms and Rain
4:13 PM 68.0 °F - 66.2 °F 94% 29.90 in 6.0 mi NE 11.5 mph 20.7 mph N/A Rain , Thunderstorm Light Thunderstorms and Rain
4:38 PM 68.0 °F - 66.2 °F 94% 29.87 in 10.0 mi ENE 16.1 mph 21.9 mph N/A Thunderstorm Mostly Cloudy
4:55 PM 68.9 °F - 67.1 °F 94% 29.92 in 10.0 mi NE 6.9 mph - 0.07 in   Overcast
5:32 PM 69.8 °F - 68.0 °F 94% 29.91 in 10.0 mi ENE 5.8 mph - N/A Rain Light Rain
5:41 PM 69.8 °F - 68.0 °F 94% 29.95 in 10.0 mi Calm Calm - N/A   Mostly Cloudy
5:53 PM 69.8 °F - 68.0 °F 94% 30.00 in 10.0 mi WSW 13.8 mph 18.4 mph N/A Thunderstorm Thunderstorm
5:55 PM 69.6 °F - 68.2 °F 95% 30.00 in 10.0 mi WSW 12.7 mph 18.4 mph 0.00 in Thunderstorm Thunderstorm
5:57 PM 69.8 °F - 68.0 °F 94% 30.00 in 10.0 mi SW 11.5 mph - N/A Rain , Thunderstorm Light Thunderstorms and Rain
6:08 PM 69.8 °F - 68.0 °F 94% 29.98 in 10.0 mi South 10.4 mph - N/A Rain , Thunderstorm Light Thunderstorms and Rain
6:55 PM 72.3 °F - 69.6 °F 91% 29.96 in 9.0 mi SSE 6.9 mph - 0.08 in Rain , Thunderstorm Light Thunderstorms and Rain
7:22 PM 73.4 °F - 68.0 °F 83% 29.91 in 10.0 mi SE 11.5 mph - N/A Rain Light Rain
7:44 PM 73.4 °F - 66.2 °F 78% 29.88 in 10.0 mi South 12.7 mph 21.9 mph N/A Thunderstorm Overcast
7:55 PM 73.8 °F - 64.6 °F 73% 29.88 in 10.0 mi South 19.6 mph 26.5 mph 0.00 in   Mostly Cloudy
8:55 PM 75.0 °F - 65.7 °F 73% 29.91 in 10.0 mi Calm Calm - N/A   Mostly Cloudy
9:55 PM 74.5 °F - 67.1 °F 78% 29.91 in 10.0 mi WSW 5.8 mph - N/A   Clear
10:55 PM 75.7 °F - 67.8 °F 76% 29.90 in 10.0 mi WSW 11.5 mph 18.4 mph N/A   Clear
11:55 PM 76.6 °F - 66.7 °F 71% 29.88 in 10.0 mi WSW 5.8 mph - N/A   Clear